| time (UTC) | temp F | wind direction | speed MPH | gust MPH | rain 1hr in | rain 24hr in | rain mn in | humidity % | barometer mb |
| 20260503024742 | 62 | 140 | 4.0 | 5.0 | 0.00 | 0.00 | 0.00 | 41 | 1011.8 |
| 20260503024242 | 62 | 136 | 3.0 | 5.0 | 0.00 | 0.00 | 0.00 | 40 | 1011.7 |
| 20260503023739 | 63 | 142 | 4.0 | 5.0 | 0.00 | 0.00 | 0.00 | 39 | 1011.8 |
| 20260503023243 | 63 | 137 | 3.0 | 6.0 | 0.00 | 0.00 | 0.00 | 39 | 1011.6 |
| 20260503022733 | 64 | 144 | 4.0 | 7.0 | 0.00 | 0.00 | 0.00 | 38 | 1011.6 |
| 20260503022230 | 65 | 155 | 5.0 | 7.0 | 0.00 | 0.00 | 0.00 | 37 | 1011.6 |
| 20260503021727 | 66 | 155 | 6.0 | 7.0 | 0.00 | 0.00 | 0.00 | 37 | 1011.6 |
| 20260503021506 | 66 | 154 | 6.0 | 7.0 | 0.00 | 0.00 | 0.00 | 36 | 1011.6 |
| 20260503020734 | 67 | 157 | 5.0 | 7.0 | 0.00 | 0.00 | 0.00 | 35 | 1011.6 |
| 20260503020227 | 67 | 165 | 5.0 | 8.0 | 0.00 | 0.00 | 0.00 | 34 | 1011.7 |
| 20260503020201 | 67 | 161 | 7.0 | 9.0 | 0.00 | 0.00 | 0.00 | 34 | 1011.7 |
| 20260503015221 | 68 | 156 | 7.0 | 9.0 | 0.00 | 0.00 | 0.00 | 33 | 1011.8 |
| 20260503014714 | 68 | 171 | 7.0 | 9.0 | 0.00 | 0.00 | 0.00 | 32 | 1011.9 |
| 20260503014218 | 69 | 144 | 7.0 | 9.0 | 0.00 | 0.00 | 0.00 | 32 | 1011.9 |
| 20260503013709 | 69 | 148 | 6.0 | 9.0 | 0.00 | 0.00 | 0.00 | 31 | 1012.0 |
| 20260503013210 | 70 | 147 | 6.0 | 9.0 | 0.00 | 0.00 | 0.00 | 30 | 1012.0 |
| 20260503012708 | 70 | 159 | 7.0 | 9.0 | 0.00 | 0.00 | 0.00 | 29 | 1012.0 |
| 20260503012205 | 71 | 156 | 7.0 | 11.0 | 0.00 | 0.00 | 0.00 | 28 | 1012.0 |
| 20260503011706 | 71 | 173 | 6.0 | 12.0 | 0.00 | 0.00 | 0.00 | 28 | 1012.1 |
| 20260503011211 | 72 | 171 | 9.0 | 12.0 | 0.00 | 0.00 | 0.00 | 27 | 1012.1 |
| 20260503010710 | 72 | 155 | 9.0 | 12.0 | 0.00 | 0.00 | 0.00 | 28 | 1012.3 |
| 20260503010204 | 73 | 180 | 8.0 | 12.0 | 0.00 | 0.00 | 0.00 | 27 | 1012.4 |
| 20260503005706 | 72 | 170 | 3.0 | 10.0 | 0.00 | 0.00 | 0.00 | 27 | 1012.4 |
| 20260503005201 | 72 | 225 | 3.0 | 10.0 | 0.00 | 0.00 | 0.00 | 25 | 1012.4 |
| 20260503004656 | 73 | 146 | 3.0 | 8.0 | 0.00 | 0.00 | 0.00 | 25 | 1012.5 |
| 20260503004155 | 73 | 133 | 4.0 | 8.0 | 0.00 | 0.00 | 0.00 | 25 | 1012.6 |
| 20260503003653 | 73 | 117 | 2.0 | 8.0 | 0.00 | 0.00 | 0.00 | 26 | 1012.6 |
| 20260503003154 | 73 | 84 | 3.0 | 8.0 | 0.00 | 0.00 | 0.00 | 27 | 1012.6 |
| 20260503002650 | 72 | 109 | 3.0 | 7.0 | 0.00 | 0.00 | 0.00 | 27 | 1012.6 |
| 20260503002154 | 72 | 115 | 2.0 | 7.0 | 0.00 | 0.00 | 0.00 | 27 | 1012.7 |
| 20260503001656 | 72 | 109 | 2.0 | 7.0 | 0.00 | 0.00 | 0.00 | 27 | 1012.7 |
| 20260503001148 | 72 | 39 | 3.0 | 8.0 | 0.00 | 0.00 | 0.00 | 27 | 1012.9 |
| 20260503000642 | 72 | 57 | 4.0 | 8.0 | 0.00 | 0.00 | 0.00 | 26 | 1012.9 |
| 20260503000140 | 72 | 96 | 4.0 | 8.0 | 0.00 | 0.00 | 0.00 | 27 | 1012.9 |
| 20260502235640 | 72 | 80 | 3.0 | 7.0 | 0.00 | 0.00 | 0.00 | 26 | 1012.9 |
| 20260502235138 | 72 | 34 | 3.0 | 7.0 | 0.00 | 0.00 | 0.00 | 28 | 1013.0 |
| 20260502234633 | 72 | 342 | 3.0 | 5.0 | 0.00 | 0.00 | 0.00 | 28 | 1013.0 |
| 20260502234132 | 72 | 165 | 2.0 | 12.0 | 0.00 | 0.00 | 0.00 | 27 | 1013.0 |
| 20260502233628 | 72 | 225 | 3.0 | 12.0 | 0.00 | 0.00 | 0.00 | 26 | 1013.3 |
| 20260502233402 | 72 | 148 | 4.0 | 10.0 | 0.00 | 0.00 | 0.00 | 26 | 1013.4 |
| 20260502232628 | 72 | 149 | 4.0 | 15.0 | 0.00 | 0.00 | 0.00 | 27 | 1013.4 |
| 20260502232122 | 72 | 150 | 7.0 | 15.0 | 0.00 | 0.00 | 0.00 | 25 | 1013.5 |
| 20260502231619 | 72 | 132 | 5.0 | 11.0 | 0.00 | 0.00 | 0.00 | 26 | 1013.5 |
| 20260502231118 | 72 | 270 | 8.0 | 11.0 | 0.00 | 0.00 | 0.00 | 28 | 1013.7 |
| 20260502230618 | 72 | 279 | 4.0 | 9.0 | 0.00 | 0.00 | 0.00 | 27 | 1013.8 |
| 20260502230113 | 72 | 171 | 4.0 | 10.0 | 0.00 | 0.00 | 0.00 | 27 | 1013.7 |
| 20260502225608 | 73 | 216 | 9.0 | 10.0 | 0.00 | 0.00 | 0.00 | 26 | 1013.8 |
| 20260502225102 | 73 | 104 | 6.0 | 10.0 | 0.00 | 0.00 | 0.00 | 26 | 1013.8 |
| 20260502224605 | 73 | 164 | 7.0 | 10.0 | 0.00 | 0.00 | 0.00 | 26 | 1013.9 |
| 20260502224100 | 73 | 170 | 6.0 | 13.0 | 0.00 | 0.00 | 0.00 | 26 | 1013.9 |
| 20260502223600 | 73 | 243 | 9.0 | 13.0 | 0.00 | 0.00 | 0.00 | 27 | 1014.1 |
| 20260502223055 | 73 | 214 | 6.0 | 10.0 | 0.00 | 0.00 | 0.00 | 26 | 1014.1 |
| 20260502222553 | 73 | 200 | 5.0 | 12.0 | 0.00 | 0.00 | 0.00 | 26 | 1014.4 |
| 20260502222322 | 73 | 168 | 5.0 | 12.0 | 0.00 | 0.00 | 0.00 | 26 | 1014.4 |
| 20260502221551 | 74 | 179 | 4.0 | 12.0 | 0.00 | 0.00 | 0.00 | 27 | 1014.4 |
| 20260502221058 | 74 | 159 | 6.0 | 12.0 | 0.00 | 0.00 | 0.00 | 27 | 1014.4 |
| 20260502220814 | 74 | 148 | 5.0 | 13.0 | 0.00 | 0.00 | 0.00 | 26 | 1014.5 |
| 20260502220541 | 73 | 225 | 10.0 | 13.0 | 0.00 | 0.00 | 0.00 | 27 | 1014.6 |
| 20260502215812 | 73 | 211 | 4.0 | 13.0 | 0.00 | 0.00 | 0.00 | 27 | 1014.7 |
| 20260502215047 | 73 | 236 | 8.0 | 13.0 | 0.00 | 0.00 | 0.00 | 27 | 1014.8 |
| 20260502214548 | 72 | 320 | 5.0 | 8.0 | 0.00 | 0.00 | 0.00 | 29 | 1014.8 |
| 20260502214048 | 72 | 185 | 5.0 | 9.0 | 0.00 | 0.00 | 0.00 | 32 | 1014.8 |
| 20260502213816 | 71 | 253 | 5.0 | 9.0 | 0.00 | 0.00 | 0.00 | 28 | 1014.9 |
| 20260502213042 | 71 | 69 | 1.0 | 9.0 | 0.00 | 0.00 | 0.00 | 27 | 1015.0 |
| 20260502212544 | 71 | 92 | 6.0 | 11.0 | 0.00 | 0.00 | 0.00 | 29 | 1015.0 |
| 20260502212042 | 71 | 134 | 8.0 | 14.0 | 0.00 | 0.00 | 0.00 | 28 | 1015.1 |
| 20260502211539 | 72 | 184 | 9.0 | 16.0 | 0.00 | 0.00 | 0.00 | 28 | 1015.3 |
| 20260502211045 | 71 | 256 | 10.0 | 16.0 | 0.00 | 0.00 | 0.00 | 30 | 1015.4 |
| 20260502210540 | 71 | 148 | 9.0 | 15.0 | 0.00 | 0.00 | 0.00 | 29 | 1015.3 |
| 20260502210034 | 71 | 181 | 8.0 | 13.0 | 0.00 | 0.00 | 0.00 | 30 | 1015.5 |
| 20260502205531 | 70 | 148 | 3.0 | 10.0 | 0.00 | 0.00 | 0.00 | 33 | 1015.6 |
| 20260502205031 | 70 | 217 | 5.0 | 12.0 | 0.00 | 0.00 | 0.00 | 31 | 1015.6 |
| 20260502204535 | 69 | 192 | 8.0 | 16.0 | 0.00 | 0.00 | 0.00 | 31 | 1015.7 |
| 20260502204023 | 68 | 246 | 6.0 | 16.0 | 0.00 | 0.00 | 0.00 | 32 | 1015.7 |
| 20260502203516 | 68 | 142 | 6.0 | 10.0 | 0.00 | 0.00 | 0.00 | 31 | 1015.8 |
| 20260502203016 | 69 | 167 | 6.0 | 12.0 | 0.00 | 0.00 | 0.00 | 31 | 1015.9 |
| 20260502202512 | 69 | 179 | 4.0 | 12.0 | 0.00 | 0.00 | 0.00 | 31 | 1016.0 |
| 20260502202007 | 69 | 203 | 8.0 | 11.0 | 0.00 | 0.00 | 0.00 | 32 | 1016.2 |
| 20260502201507 | 68 | 190 | 5.0 | 11.0 | 0.00 | 0.00 | 0.00 | 31 | 1016.2 |
| 20260502201008 | 68 | 179 | 8.0 | 11.0 | 0.00 | 0.00 | 0.00 | 32 | 1016.4 |
| 20260502200736 | 68 | 140 | 6.0 | 11.0 | 0.00 | 0.00 | 0.00 | 34 | 1016.4 |
| 20260502200009 | 68 | 134 | 3.0 | 16.0 | 0.00 | 0.00 | 0.00 | 33 | 1016.5 |
| 20260502195506 | 68 | 219 | 3.0 | 16.0 | 0.00 | 0.00 | 0.00 | 32 | 1016.7 |
| 20260502195003 | 68 | 157 | 6.0 | 15.0 | 0.00 | 0.00 | 0.00 | 32 | 1016.8 |
| 20260502194501 | 69 | 144 | 6.0 | 16.0 | 0.00 | 0.00 | 0.00 | 31 | 1016.8 |
| 20260502194006 | 69 | 272 | 2.0 | 19.0 | 0.00 | 0.00 | 0.00 | 34 | 1016.9 |
| 20260502193509 | 68 | 207 | 14.0 | 19.0 | 0.00 | 0.00 | 0.00 | 32 | 1016.9 |
| 20260502193002 | 67 | 272 | 9.0 | 19.0 | 0.00 | 0.00 | 0.00 | 37 | 1017.0 |
| 20260502192458 | 66 | 297 | 6.0 | 12.0 | 0.00 | 0.00 | 0.00 | 35 | 1017.1 |
| 20260502191954 | 66 | 156 | 4.0 | 12.0 | 0.00 | 0.00 | 0.00 | 35 | 1017.1 |
| 20260502191717 | 66 | 114 | 4.0 | 14.0 | 0.00 | 0.00 | 0.00 | 33 | 1017.4 |
| 20260502190946 | 67 | 136 | 9.0 | 14.0 | 0.00 | 0.00 | 0.00 | 33 | 1017.5 |
| 20260502190442 | 67 | 136 | 5.0 | 12.0 | 0.00 | 0.00 | 0.00 | 34 | 1017.6 |
| 20260502185937 | 67 | 165 | 7.0 | 12.0 | 0.00 | 0.00 | 0.00 | 34 | 1017.7 |
| 20260502185436 | 67 | 146 | 6.0 | 12.0 | 0.00 | 0.00 | 0.00 | 33 | 1017.7 |
| 20260502184933 | 67 | 201 | 8.0 | 13.0 | 0.00 | 0.00 | 0.00 | 34 | 1017.8 |
| 20260502184432 | 67 | 196 | 9.0 | 13.0 | 0.00 | 0.00 | 0.00 | 34 | 1017.8 |
| 20260502183928 | 66 | 153 | 8.0 | 12.0 | 0.00 | 0.00 | 0.00 | 35 | 1017.7 |
| 20260502183427 | 66 | 192 | 6.0 | 12.0 | 0.00 | 0.00 | 0.00 | 36 | 1017.8 |
| 20260502182922 | 66 | 159 | 6.0 | 14.0 | 0.00 | 0.00 | 0.00 | 35 | 1017.9 |
| 20260502182421 | 65 | 159 | 7.0 | 17.0 | 0.00 | 0.00 | 0.00 | 35 | 1017.9 |
| 20260502181919 | 65 | 193 | 6.0 | 17.0 | 0.00 | 0.00 | 0.00 | 36 | 1018.0 |
| 20260502181419 | 65 | 157 | 13.0 | 17.0 | 0.00 | 0.00 | 0.00 | 36 | 1018.0 |
| 20260502180915 | 65 | 215 | 4.0 | 16.0 | 0.00 | 0.00 | 0.00 | 37 | 1018.1 |
| 20260502180644 | 65 | 172 | 8.0 | 16.0 | 0.00 | 0.00 | 0.00 | 36 | 1018.1 |
| 20260502164347 | 61 | 146 | 2.0 | 11.0 | 0.00 | 0.00 | 0.00 | 40 | 1019.1 |
| 20260502163845 | 60 | 138 | 5.0 | 10.0 | 0.00 | 0.00 | 0.00 | 41 | 1019.1 |
| 20260502163343 | 60 | 181 | 8.0 | 12.0 | 0.00 | 0.00 | 0.00 | 42 | 1019.1 |
| 20260502162839 | 60 | 143 | 9.0 | 12.0 | 0.00 | 0.00 | 0.00 | 42 | 1019.2 |
| 20260502162340 | 59 | 181 | 7.0 | 10.0 | 0.00 | 0.00 | 0.00 | 44 | 1019.1 |
| 20260502162115 | 60 | 158 | 6.0 | 10.0 | 0.00 | 0.00 | 0.00 | 43 | 1019.2 |
| 20260502161335 | 60 | 161 | 5.0 | 11.0 | 0.00 | 0.00 | 0.00 | 42 | 1019.4 |
| 20260502160831 | 61 | 127 | 6.0 | 11.0 | 0.00 | 0.00 | 0.00 | 42 | 1019.4 |
| 20260502160331 | 61 | 102 | 9.0 | 11.0 | 0.00 | 0.00 | 0.00 | 42 | 1019.4 |
| 20260502152323 | 57 | 98 | 3.0 | 5.0 | 0.00 | 0.00 | 0.00 | 47 | 1019.7 |
| 20260502151820 | 56 | 50 | 2.0 | 5.0 | 0.00 | 0.00 | 0.00 | 49 | 1019.7 |
| 20260502151319 | 55 | 133 | 2.0 | 6.0 | 0.00 | 0.00 | 0.00 | 50 | 1019.7 |
| 20260502150816 | 54 | 119 | 1.0 | 6.0 | 0.00 | 0.00 | 0.00 | 52 | 1019.8 |
| 20260502150312 | 53 | 13 | 1.0 | 4.0 | 0.00 | 0.00 | 0.00 | 56 | 1019.8 |
| 20260502150306 | 53 | 5 | 2.0 | 4.0 | 0.00 | 0.00 | 0.00 | 58 | 1019.8 |
| 20260502130213 | 44 | 319 | 3.0 | 7.0 | 0.00 | 0.00 | 0.00 | 78 | 1019.4 |
| 20260502123705 | 43 | 309 | 4.0 | 6.0 | 0.00 | 0.00 | 0.00 | 78 | 1019.4 |
| 20260502123200 | 43 | 329 | 4.0 | 6.0 | 0.00 | 0.00 | 0.00 | 78 | 1019.4 |
| 20260502122701 | 43 | 321 | 5.0 | 6.0 | 0.00 | 0.00 | 0.00 | 77 | 1019.5 |
| 20260502122650 | 44 | 319 | 3.0 | 7.0 | 0.00 | 0.00 | 0.00 | 77 | 1019.4 |
| 20260502121656 | 44 | 316 | 4.0 | 7.0 | 0.00 | 0.00 | 0.00 | 76 | 1019.4 |
| 20260502121407 | 44 | 325 | 4.0 | 6.0 | 0.00 | 0.00 | 0.00 | 76 | 1019.2 |
| 20260502120648 | 44 | 319 | 3.0 | 5.0 | 0.00 | 0.00 | 0.00 | 75 | 1019.4 |
| 20260502120147 | 44 | 290 | 2.0 | 7.0 | 0.00 | 0.00 | 0.00 | 75 | 1019.2 |
| 20260502115644 | 44 | 317 | 4.0 | 7.0 | 0.00 | 0.00 | 0.00 | 75 | 1019.4 |
| 20260502115143 | 44 | 308 | 4.0 | 7.0 | 0.00 | 0.00 | 0.00 | 75 | 1019.4 |
| 20260502114642 | 44 | 311 | 5.0 | 7.0 | 0.00 | 0.00 | 0.00 | 75 | 1019.4 |
| 20260502114133 | 44 | 307 | 5.0 | 7.0 | 0.00 | 0.00 | 0.00 | 76 | 1019.4 |
| 20260502113633 | 44 | 336 | 3.0 | 4.0 | 0.00 | 0.00 | 0.00 | 75 | 1019.4 |
| 20260502113132 | 45 | 339 | 2.0 | 4.0 | 0.00 | 0.00 | 0.00 | 76 | 1019.2 |
| 20260502112631 | 45 | 340 | 3.0 | 5.0 | 0.00 | 0.00 | 0.00 | 76 | 1019.1 |
| 20260502112131 | 45 | 323 | 3.0 | 5.0 | 0.00 | 0.00 | 0.00 | 76 | 1019.2 |
| 20260502111631 | 45 | 320 | 4.0 | 6.0 | 0.00 | 0.00 | 0.00 | 76 | 1019.2 |
| 20260502111133 | 45 | 296 | 4.0 | 7.0 | 0.00 | 0.00 | 0.00 | 76 | 1019.2 |
| 20260502110624 | 45 | 304 | 4.0 | 8.0 | 0.00 | 0.00 | 0.00 | 76 | 1019.2 |
| 20260502110123 | 45 | 284 | 7.0 | 8.0 | 0.00 | 0.00 | 0.00 | 77 | 1019.4 |
| 20260502105623 | 45 | 295 | 3.0 | 4.0 | 0.00 | 0.00 | 0.00 | 77 | 1019.2 |
| 20260502105121 | 45 | 301 | 2.0 | 5.0 | 0.00 | 0.00 | 0.00 | 77 | 1019.4 |
| 20260502104622 | 45 | 307 | 3.0 | 6.0 | 0.00 | 0.00 | 0.00 | 77 | 1019.2 |
| 20260502104117 | 45 | 316 | 4.0 | 7.0 | 0.00 | 0.00 | 0.00 | 77 | 1019.2 |
| 20260502103613 | 45 | 315 | 5.0 | 7.0 | 0.00 | 0.00 | 0.00 | 77 | 1019.4 |
| 20260502103112 | 44 | 304 | 5.0 | 7.0 | 0.00 | 0.00 | 0.00 | 75 | 1019.2 |
| 20260502102608 | 44 | 317 | 5.0 | 8.0 | 0.00 | 0.00 | 0.00 | 75 | 1019.4 |
| 20260502102106 | 44 | 303 | 6.0 | 8.0 | 0.00 | 0.00 | 0.00 | 76 | 1019.4 |
| 20260502102100 | 44 | 306 | 5.0 | 8.0 | 0.00 | 0.00 | 0.00 | 75 | 1019.4 |
| 20260502101058 | 44 | 298 | 6.0 | 8.0 | 0.00 | 0.00 | 0.00 | 75 | 1019.4 |
| 20260502100556 | 44 | 304 | 5.0 | 7.0 | 0.00 | 0.00 | 0.00 | 74 | 1019.1 |
| 20260502100332 | 44 | 309 | 5.0 | 7.0 | 0.00 | 0.00 | 0.00 | 74 | 1019.1 |
| 20260502091313 | 44 | 311 | 4.0 | 7.0 | 0.00 | 0.00 | 0.00 | 74 | 1019.0 |
| 20260502090551 | 44 | 287 | 5.0 | 7.0 | 0.00 | 0.00 | 0.00 | 74 | 1019.1 |
| 20260502090308 | 44 | 293 | 4.0 | 6.0 | 0.00 | 0.00 | 0.00 | 73 | 1019.0 |
| 20260502071454 | 43 | 271 | 6.0 | 9.0 | 0.00 | 0.00 | 0.00 | 75 | 1018.8 |
| 20260502070958 | 43 | 288 | 6.0 | 9.0 | 0.00 | 0.00 | 0.00 | 75 | 1018.8 |
| 20260502070714 | 43 | 286 | 6.0 | 10.0 | 0.00 | 0.00 | 0.00 | 74 | 1018.8 |
| 20260502065952 | 43 | 302 | 8.0 | 10.0 | 0.00 | 0.00 | 0.00 | 74 | 1018.7 |
| 20260502065711 | 43 | 297 | 8.0 | 9.0 | 0.00 | 0.00 | 0.00 | 73 | 1018.6 |
| 20260502064940 | 43 | 297 | 7.0 | 8.0 | 0.00 | 0.00 | 0.00 | 73 | 1018.6 |
| 20260502064439 | 44 | 303 | 7.0 | 8.0 | 0.00 | 0.00 | 0.00 | 72 | 1018.6 |
| 20260502063938 | 44 | 306 | 7.0 | 8.0 | 0.00 | 0.00 | 0.00 | 72 | 1018.5 |
| 20260502063434 | 44 | 311 | 5.0 | 8.0 | 0.00 | 0.00 | 0.00 | 72 | 1018.5 |
| 20260502062931 | 44 | 315 | 4.0 | 5.0 | 0.00 | 0.00 | 0.00 | 72 | 1018.5 |
| 20260502062914 | 44 | 311 | 4.0 | 7.0 | 0.00 | 0.00 | 0.00 | 72 | 1018.4 |
| 20260502062356 | 44 | 311 | 6.0 | 8.0 | 0.00 | 0.00 | 0.00 | 72 | 1018.4 |
| 20260502061411 | 45 | 305 | 7.0 | 8.0 | 0.00 | 0.00 | 0.00 | 71 | 1018.4 |
| 20260502060912 | 45 | 314 | 5.0 | 7.0 | 0.00 | 0.00 | 0.00 | 70 | 1018.4 |
| 20260502060628 | 45 | 293 | 4.0 | 5.0 | 0.00 | 0.00 | 0.00 | 69 | 1018.4 |
| 20260502055902 | 45 | 298 | 4.0 | 6.0 | 0.00 | 0.00 | 0.00 | 69 | 1018.4 |
| 20260502055413 | 46 | 298 | 4.0 | 6.0 | 0.00 | 0.00 | 0.00 | 68 | 1018.4 |
| 20260502054901 | 46 | 311 | 3.0 | 4.0 | 0.00 | 0.00 | 0.00 | 67 | 1018.2 |
| 20260502054358 | 46 | 325 | 2.0 | 3.0 | 0.00 | 0.00 | 0.00 | 66 | 1018.2 |
| 20260502054118 | 46 | 281 | 2.0 | 3.0 | 0.00 | 0.00 | 0.00 | 66 | 1018.2 |
| 20260502053354 | 47 | 273 | 2.0 | 4.0 | 0.00 | 0.00 | 0.00 | 65 | 1018.2 |
| 20260502052849 | 47 | 270 | 3.0 | 4.0 | 0.00 | 0.00 | 0.00 | 64 | 1018.2 |
| 20260502052349 | 47 | 263 | 3.0 | 4.0 | 0.00 | 0.00 | 0.00 | 65 | 1018.2 |
| 20260502051846 | 47 | 276 | 2.0 | 4.0 | 0.00 | 0.00 | 0.00 | 65 | 1018.2 |
| 20260502051605 | 47 | 311 | 3.0 | 4.0 | 0.00 | 0.00 | 0.00 | 65 | 1018.2 |
| 20260502050839 | 48 | 317 | 2.0 | 4.0 | 0.00 | 0.00 | 0.00 | 64 | 1018.1 |
| 20260502050338 | 48 | 288 | 1.0 | 3.0 | 0.00 | 0.00 | 0.00 | 64 | 1018.1 |
| 20260502045834 | 48 | 288 | 2.0 | 4.0 | 0.00 | 0.00 | 0.00 | 63 | 1018.1 |
| 20260502045328 | 49 | 306 | 3.0 | 4.0 | 0.00 | 0.00 | 0.00 | 63 | 1018.1 |
| 20260502044827 | 49 | 311 | 3.0 | 4.0 | 0.00 | 0.00 | 0.00 | 62 | 1018.0 |
| 20260502044325 | 49 | 336 | 2.0 | 4.0 | 0.00 | 0.00 | 0.00 | 62 | 1018.0 |
| 20260502043824 | 50 | 300 | 2.0 | 3.0 | 0.00 | 0.00 | 0.00 | 61 | 1018.1 |
| 20260502043321 | 50 | 305 | 2.0 | 4.0 | 0.00 | 0.00 | 0.00 | 60 | 1018.0 |
| 20260502042817 | 50 | 297 | 2.0 | 4.0 | 0.00 | 0.00 | 0.00 | 60 | 1018.0 |
| 20260502042312 | 51 | 288 | 3.0 | 4.0 | 0.00 | 0.00 | 0.00 | 58 | 1018.0 |
| 20260502041808 | 51 | 284 | 3.0 | 4.0 | 0.00 | 0.00 | 0.00 | 57 | 1017.9 |
| 20260502041306 | 52 | 344 | 2.0 | 2.0 | 0.00 | 0.00 | 0.00 | 57 | 1017.9 |
| 20260502040807 | 52 | 344 | 1.0 | 3.0 | 0.00 | 0.00 | 0.00 | 56 | 1017.9 |
| 20260502040305 | 53 | 344 | 1.0 | 4.0 | 0.00 | 0.00 | 0.00 | 57 | 1017.9 |
| 20260502035812 | 53 | 344 | 3.0 | 5.0 | 0.00 | 0.00 | 0.00 | 57 | 1017.9 |
| 20260502035310 | 53 | 0 | 4.0 | 8.0 | 0.00 | 0.00 | 0.00 | 57 | 1017.8 |
| 20260502035306 | 53 | 346 | 3.0 | 8.0 | 0.00 | 0.00 | 0.00 | 58 | 1017.9 |
| 20260502034300 | 53 | 0 | 6.0 | 9.0 | 0.00 | 0.00 | 0.00 | 57 | 1017.7 |
| 20260502033800 | 53 | 11 | 6.0 | 10.0 | 0.00 | 0.00 | 0.00 | 57 | 1017.6 |
| 20260502033258 | 54 | 15 | 5.0 | 10.0 | 0.00 | 0.00 | 0.00 | 56 | 1017.5 |
| 20260502033034 | 54 | 0 | 5.0 | 11.0 | 0.00 | 0.00 | 0.00 | 56 | 1017.5 |
| 20260502032256 | 54 | 5 | 7.0 | 11.0 | 0.00 | 0.00 | 0.00 | 55 | 1017.5 |
| 20260502031757 | 55 | 13 | 7.0 | 11.0 | 0.00 | 0.00 | 0.00 | 55 | 1017.4 |
| 20260502031255 | 55 | 5 | 8.0 | 12.0 | 0.00 | 0.00 | 0.00 | 54 | 1017.2 |
| 20260502030759 | 55 | 9 | 8.0 | 13.0 | 0.00 | 0.00 | 0.00 | 54 | 1017.1 |
| 20260502030248 | 55 | 39 | 5.0 | 16.0 | 0.00 | 0.00 | 0.00 | 54 | 1017.1 |
| 20260502030016 | 55 | 35 | 9.0 | 16.0 | 0.00 | 0.00 | 0.00 | 54 | 1016.9 |
| 20260502025243 | 56 | 13 | 8.0 | 15.0 | 0.00 | 0.00 | 0.00 | 54 | 1017.0 |